Regional Weather Roundup
Issued by NWS Sioux Falls, SD

Home | Current Version | Previous Version | Text Only | Print | Product List | Glossary Off
Versions: 1 2 3 4 5 6 7 8 9 10 11 12 13 14 15 16 17 18 19 20 21 22 23 24 25 26 27 28 29 30 31 32 33 34 35 36 37 38 39 40 41 42 43 44 45 46 47 48 49 50

000
ASUS43 KFSD 210202
RWRFSD

WEATHER ROUNDUP FOR SE SOUTH DAKOTA/SW MINNESOTA/NW IOWA
NATIONAL WEATHER SERVICE SIOUX FALLS SD
800 PM CST MON NOV 20 2017

NOTE: "FAIR" INDICATES FEW OR NO CLOUDS BELOW 12,000 FEET WITH NO
SIGNIFICANT WEATHER AND OR OBSTRUCTIONS TO VISIBILITY.


SDZ038>040-050-052>070-210300-
SOUTHEAST SOUTH DAKOTA

CITY           SKY/WX    TMP DP  RH WIND       PRES   REMARKS
BROOKINGS      CLEAR     39  23  52 MISG        N/A
CHAMBERLAIN    CLEAR     49  25  37 N6        29.66S
HURON          CLEAR     35  20  54 NW10      29.62R WCI  27
MADISON        FAIR      41  23  48 NW10      29.61R
MITCHELL       PTCLDY    42  24  49 NW9       29.64R
SIOUX FALLS    PTCLDY    41  26  55 W7        29.60R
WINNER         FAIR      45  22  40 W7        29.70R
YANKTON        CLOUDY    41  27  57 SW6       29.63R
$$

MNZ071-072-080-081-089-090-097-098-210300-
SOUTHWEST MINNESOTA

CITY           SKY/WX    TMP DP  RH WIND       PRES   REMARKS
FAIRMONT       MOCLDY    45  28  51 W16       29.56R
JACKSON        CLOUDY    43  27  52 W12       29.57S
MARSHALL       CLEAR     42  26  53 W15       29.55R
MONTEVIDEO     CLEAR     43  25  49 N7        29.53R
PIPESTONE      CLEAR     36  25  64 W7        29.59R
REDWOOD FALLS  CLEAR     44  25  47 SW13      29.52R
WINDOM         CLOUDY    41  23  48 W9        29.56S
WORTHINGTON    CLOUDY    41  25  53 W13       29.59R
$$

IAZ001>003-012>014-020>022-031-032-NEZ013-014-SDZ071-210300-
NORTHWEST IOWA

CITY           SKY/WX    TMP DP  RH WIND       PRES   REMARKS
CHEROKEE       PTCLDY    43  30  59 SW3       29.60S
DENISON        CLOUDY    45  28  53 SW5       29.64S
ESTHERVILLE    MOCLDY    41  30  65 W10       29.58R
LE MARS        CLOUDY    39  28  65 CALM      29.62R
ORANGE CITY    CLOUDY    39  28  65 W5        29.62R
SHELDON        CLOUDY    39  27  60 SW5       29.60R
SIOUX CITY     CLOUDY    36  28  73 W3        29.63R
SPENCER        MOCLDY    42  28  57 W9        29.60R
STORM LAKE     CLOUDY    43  28  56 SW12      29.59S
$$

ABBREVIATIONS USED IN REMARKS
   TC - TEMPERATURE IN CELSIUS
  WCI - WIND CHILL INDEX
   HX - HEAT INDEX
  VSB - VISIBILITY





USA.gov is the U.S. government's official web portal to all federal, state and local government web resources and services.